EDT,Max TemperatureF,Mean TemperatureF,Min TemperatureF,Max Dew PointF,MeanDew PointF,Min DewpointF,Max Humidity, Mean Humidity, Min Humidity, Max Sea Level PressureIn, Mean Sea Level PressureIn, Min Sea Level PressureIn, Max VisibilityMiles, Mean VisibilityMiles, Min VisibilityMiles, Max Wind SpeedMPH, Mean Wind SpeedMPH, Max Gust SpeedMPH,PrecipitationIn, CloudCover, Events, WindDirDegrees
2013-7-1,81,77,73,76,74,70,97,88,81,30.01,29.93,29.85,10,10,7,18,8,29,0.03,5,Rain,175
2013-7-2,82,78,73,75,73,71,97,90,76,30.19,30.10,30.00,10,8,1,22,10,28,0.58,6,Rain,181
2013-7-3,84,78,73,78,74,70,94,87,76,30.25,30.22,30.19,10,10,10,14,5,20,0.01,4,Rain,179
2013-7-4,86,78,73,76,74,73,97,84,69,30.28,30.24,30.19,10,10,9,17,8,24,0.00,3,,184
2013-7-5,88,82,75,76,73,72,94,76,59,30.24,30.20,30.14,10,10,10,13,6,17,0.00,0,,192
2013-7-6,91,84,77,76,74,71,90,73,57,30.19,30.14,30.08,10,10,10,12,5,16,0.00,1,,204
2013-7-7,90,82,73,75,72,69,87,74,59,30.12,30.06,30.00,10,10,10,20,5,30,0.02,1,,249
2013-7-8,84,78,73,72,70,66,96,75,53,30.11,30.08,30.04,10,10,8,9,4,,0.00,2,Rain,259
2013-7-9,86,78,73,77,73,70,93,81,65,30.11,30.07,30.01,10,9,7,9,3,,0.00,3,Rain,200
2013-7-10,88,81,75,77,75,72,94,84,67,30.01,29.95,29.87,10,10,8,12,5,,0.24,2,Rain,199
2013-7-11,84,78,73,74,72,69,97,85,63,29.93,29.90,29.85,10,10,10,9,6,,0.00,5,Rain,262
2013-7-12,77,72,68,73,71,68,100,97,88,30.01,29.96,29.88,10,4,0,16,7,,2.14,8,Fog-Rain,340
2013-7-13,84,76,69,77,72,69,100,89,74,30.28,30.15,30.00,10,10,7,13,8,,0.00,5,,149
2013-7-14,86,80,77,77,75,70,100,84,61,30.35,30.31,30.28,10,10,9,14,7,,0.00,3,,158
2013-7-15,90,81,73,82,76,73,97,82,61,30.31,30.25,30.18,10,10,7,10,4,,0.00,0,,267
2013-7-16,91,85,80,78,74,70,94,71,53,30.23,30.20,30.16,10,10,8,14,4,,0.00,1,,4
2013-7-17,91,85,79,79,75,69,94,73,48,30.21,30.16,30.10,10,8,4,9,4,,0.00,0,,358
2013-7-18,93,86,78,81,77,74,90,76,63,30.11,30.06,30.00,8,7,5,13,3,,0.00,0,,178
2013-7-19,93,87,81,80,77,75,85,72,57,30.01,29.95,29.88,9,6,5,14,4,18,0.00,0,,206
2013-7-20,91,86,80,77,75,71,87,72,50,29.90,29.86,29.79,10,9,6,10,6,17,0.00,0,,238
2013-7-21,86,80,75,78,74,70,100,84,61,29.94,29.91,29.88,10,8,0,23,5,33,0.69,3,Fog-Rain,359
2013-7-22,86,80,75,77,75,73,100,87,74,29.93,29.87,29.77,10,8,6,14,4,,0.00,1,,165
2013-7-23,86,80,73,75,72,68,100,82,59,29.76,29.70,29.65,10,9,2,13,5,20,0.32,4,Rain,290
2013-7-24,82,78,73,70,68,62,81,70,62,29.92,29.78,29.68,10,10,9,12,5,,0.00,3,,331
2013-7-25,75,70,64,65,62,58,81,74,66,30.03,29.98,29.92,10,10,10,13,9,,0.00,2,,17
2013-7-26,80,74,69,65,64,61,87,71,58,30.09,30.05,30.03,10,10,6,10,6,,0.00,4,,3
2013-7-27,82,76,71,71,68,66,87,77,69,30.06,30.01,29.94,10,10,10,16,6,23,0.00,3,Rain,180
2013-7-28,82,78,73,75,71,65,91,79,71,29.98,29.93,29.89,10,10,9,14,7,,0.00,5,Rain,178
2013-7-29,82,75,69,65,59,54,78,59,41,30.16,30.08,29.98,10,10,10,13,8,23,0.00,2,,317
2013-7-30,81,72,64,68,61,57,87,65,45,30.23,30.18,30.15,10,10,10,12,5,,0.00,1,,273
2013-7-31,79,74,69,69,66,65,87,76,66,30.17,30.11,30.03,10,10,8,13,4,,0.00,3,,177